Location: Aalen
(48.8330°N, 10.1000°E)
Time: 09:14:02
(UTC+01:00)

N. Korean satellite - Pass Details

Date: 05 December 2022
Orbit: 407 x 442 km, 97.3° (Epoch: 04 February)

Event Time Altitude Azimuth Distance (km) Brightness Sun altitude
Rises 05:24:33 0° 17° (NNE) 2,519 10.3 -24.0°
Reaches altitude 10° 05:26:41 10° 24° (NNE) 1,633 9.4 -23.6°
Maximum altitude 05:30:05 47° 99° (E) 624 7.4 -23.1°
Drops below altitude 10° 05:33:25 10° 175° (S) 1,595 9.3 -22.5°
Sets 05:35:28 0° 181° (S) 2,453 10.2 -22.2°
